Погода в Туделе

Испания     42°03′38″N   1°36′38″W
темп.,
°C
ветер,
м/с
пор.,
м/с
влажн.,
%
обл.,
%
осадки,
мм/ч
давл.,
гПа
погр.,
м
15 мая, сб
сб1523:00+13юв1152100 0.0 101611
02:00+14юв344998 0.0 101565
05:00+13ююв2254100 0.0 101313
08:00+15ю1255100 0.0 101343
11:00+20юз4843100 0.0 10131052
14:00+24зюз91141100 0.0 10121744
17:00+25з91242100 0.0 10112245
20:00+24зсз71049100 0.0 1011882
16 мая, вс
вс1623:00+21зсз51053100 0.0 1012434
02:00+19з51057100 0.0 1011244
05:00+19зюз81358100 0.0 1011620
08:00+19зюз61061100 0.0 1011527
11:00+22з574997 0.0 10121671
14:00+23зюз6744100 0.0 10112000
17:00+22ссз6652100 0.0 1011593
20:00+18сз796589 0.0 1013378
17 мая, пн
пн1723:00+14сз7106620 0.0 1016351
02:00+12сз6107199 0.0 1016351
05:00+12сз597183 0.0 1016343
08:00+13сз5865100 0.0 1018622
11:00+14ссз6760100 0.0 1019804
14:00+15ссз785475 0.0 1019899
17:00+19ссз884543 0.0 10181424
20:00+16ссз895194 0.0 10191026
18 мая, вт
вт1823:00+13ссз81249100 0.0 1022642
02:00+11сз59610 0.0 1023280
05:00+9сз49655 0.0 1024214
08:00+9сз5970100 0.0 1025333
11:00+14сз7846100 0.0 1025965
14:00+19сз6730100 0.0 10241398
17:00+20ссз6726100 0.0 10221724
20:00+18с893429 0.0 1023807
19 мая, ср
ср1923:00+13зсз584547 0.0 1026160
02:00+12зсз4948100 0.0 1026187
05:00+10сз45567 0.0 102691
08:00+10сз356087 0.0 1027148
11:00+17ссз443341 0.0 1026585
14:00+21ссз332537 0.0 10241139
17:00+24ссз33255 0.0 10221478
20:00+23с55315 0.0 1021698